Location: Unspecified
(0.0000°N, 0.0000°E)
Time: 06:31:08
(UTC+02:00)

Atlas Centaur 2 - Visible Passes

Search period start: 27 May 2016 00:00
Search period end: 06 June 2016 00:00
Orbit: 459 x 1316 km, 30.4° (Epoch: 25 May)

Date Brightness Start Highest point End Pass type
(mag) Time Alt. Az. Time Alt. Az. Time Alt. Az.
27 May 4.5 04:39:10 24° ENE 04:39:10 24° ENE 04:42:13 10° E visible
27 May 2.3 06:21:57 26° WNW 06:26:10 76° SSW 06:31:51 10° SE visible
27 May 5.4 21:04:58 10° NNW 21:06:08 10° NNW 21:07:19 10° N visible
28 May 4.7 04:38:05 19° E 04:38:05 19° E 04:39:54 10° E visible
28 May 2.5 06:20:52 39° W 06:23:14 57° SW 06:28:59 10° SE visible
29 May 5.0 04:36:48 13° ESE 04:36:48 13° ESE 04:37:25 10° ESE visible
29 May 2.8 06:19:34 42° SW 06:20:17 44° SW 06:26:01 10° SE visible
30 May 3.3 06:18:03 33° SSW 06:18:03 33° SSW 06:22:56 10° SSE visible
31 May 3.8 06:16:18 24° S 06:16:18 24° S 06:19:44 10° SSE visible
01 Jun 4.2 06:14:22 17° S 06:14:22 17° S 06:16:25 10° SSE visible
02 Jun 4.6 06:12:14 12° S 06:12:14 12° S 06:12:56 10° S visible
05 Jun 5.0 22:36:16 10° NNE 22:36:24 10° NNE 22:36:24 10° NNE visible
